owner,sensor,date,latitude,longitude,vertical_datum,sea_water_practical_salinity,qcFlag 
SCCF RECON,ioos:station:SCCF:13:1,2013-09-01T00:00:00Z,26.5255,-82.0032,2.22,2.15,1111122 
SCCF RECON,ioos:station:SCCF:13:1,2013-09-01T01:00:00Z,26.5255,-82.0032,2.325,1.74,1111122 
SCCF RECON,ioos:station:SCCF:13:1,2013-09-01T02:00:00Z,26.5255,-82.0032,2.4,9.93,1111122 
SCCF RECON,ioos:station:SCCF:13:1,2013-09-01T03:00:00Z,26.5255,-82.0032,2.44,14.33,1111122 
SCCF RECON,ioos:station:SCCF:13:1,2013-09-01T04:00:00Z,26.5255,-82.0032,2.48,16.74,1111122 
SCCF RECON,ioos:station:SCCF:13:1,2013-09-01T05:00:00Z,26.5255,-82.0032,2.5,18.76,1111122 
SCCF RECON,ioos:station:SCCF:13:1,2013-09-01T06:00:00Z,26.5255,-82.0032,2.489,22.59,1111122 
SCCF RECON,ioos:station:SCCF:13:1,2013-09-01T07:00:00Z,26.5255,-82.0032,2.43,23.05,1111122 
SCCF RECON,ioos:station:SCCF:13:1,2013-09-01T08:00:00Z,26.5255,-82.0032,2.388,16.45,1111122 
SCCF RECON,ioos:station:SCCF:13:1,2013-09-01T09:00:00Z,26.5255,-82.0032,2.34,13.37,1111122 
SCCF RECON,ioos:station:SCCF:13:1,2013-09-01T10:00:00Z,26.5255,-82.0032,2.35,9.02,1111122 
SCCF RECON,ioos:station:SCCF:13:1,2013-09-01T11:00:00Z,26.5255,-82.0032,2.39,21.74,1111122 
SCCF RECON,ioos:station:SCCF:13:1,2013-09-01T12:00:00Z,26.5255,-82.0032,2.47,21.48,1111122 
SCCF RECON,ioos:station:SCCF:13:1,2013-09-01T13:00:00Z,26.5255,-82.0032,2.54,18.47,1111122 
SCCF RECON,ioos:station:SCCF:13:1,2013-09-01T14:00:00Z,26.5255,-82.0032,2.6,21.01,1111122 
SCCF RECON,ioos:station:SCCF:13:1,2013-09-01T15:00:00Z,26.5255,-82.0032,2.63,22.19,1111122 
SCCF RECON,ioos:station:SCCF:13:1,2013-09-01T16:00:00Z,26.5255,-82.0032,2.65,23.78,1111122 
SCCF RECON,ioos:station:SCCF:13:1,2013-09-01T17:00:00Z,26.5255,-82.0032,2.605,25.33,1111122 
SCCF RECON,ioos:station:SCCF:13:1,2013-09-01T18:00:00Z,26.5255,-82.0032,2.524,24.62,1111122 
SCCF RECON,ioos:station:SCCF:13:1,2013-09-01T19:00:00Z,26.5255,-82.0032,2.39,19.25,1111122 
SCCF RECON,ioos:station:SCCF:13:1,2013-09-01T20:00:00Z,26.5255,-82.0032,2.285,9.2,1111122 
SCCF RECON,ioos:station:SCCF:13:1,2013-09-01T21:00:00Z,26.5255,-82.0032,2.201,7.13,1111122 
SCCF RECON,ioos:station:SCCF:13:1,2013-09-01T22:00:00Z,26.5255,-82.0032,2.161,5.39,1111122 
SCCF RECON,ioos:station:SCCF:13:1,2013-09-01T23:00:00Z,26.5255,-82.0032,2.114,3.29,1111122 
SCCF RECON,ioos:station:SCCF:13:1,2013-09-02T00:00:00Z,26.5255,-82.0032,2.143,2.89,1111122 
SCCF RECON,ioos:station:SCCF:13:1,2013-09-02T01:00:00Z,26.5255,-82.0032,2.26,2.39,1111122 
SCCF RECON,ioos:station:SCCF:13:1,2013-09-02T02:00:00Z,26.5255,-82.0032,2.37,2.05,1111122 
SCCF RECON,ioos:station:SCCF:13:1,2013-09-02T03:00:00Z,26.5255,-82.0032,2.446,5.61,1111122 
SCCF RECON,ioos:station:SCCF:13:1,2013-09-02T04:00:00Z,26.5255,-82.0032,2.5,13.16,1111122 
SCCF RECON,ioos:station:SCCF:13:1,2013-09-02T05:00:00Z,26.5255,-82.0032,2.54,18.53,1111122 
SCCF RECON,ioos:station:SCCF:13:1,2013-09-02T06:00:00Z,26.5255,-82.0032,2.54,21.44,1111122 
SCCF RECON,ioos:station:SCCF:13:1,2013-09-02T07:00:00Z,26.5255,-82.0032,2.48,22.87,1111122 
SCCF RECON,ioos:station:SCCF:13:1,2013-09-02T08:00:00Z,26.5255,-82.0032,2.4,19.09,1111122 
SCCF RECON,ioos:station:SCCF:13:1,2013-09-02T09:00:00Z,26.5255,-82.0032,2.32,8.63,1111122 
SCCF RECON,ioos:station:SCCF:13:1,2013-09-02T10:00:00Z,26.5255,-82.0032,2.27,4.24,1111122 
SCCF RECON,ioos:station:SCCF:13:1,2013-09-02T11:00:00Z,26.5255,-82.0032,2.31,3.03,1111122 
SCCF RECON,ioos:station:SCCF:13:1,2013-09-02T12:00:00Z,26.5255,-82.0032,2.421,4.06,1111122 
SCCF RECON,ioos:station:SCCF:13:1,2013-09-02T13:00:00Z,26.5255,-82.0032,2.531,14.36,1111122 
SCCF RECON,ioos:station:SCCF:13:1,2013-09-02T14:00:00Z,26.5255,-82.0032,2.594,19.4,1111122 
SCCF RECON,ioos:station:SCCF:13:1,2013-09-02T15:00:00Z,26.5255,-82.0032,2.643,20.7,1111122 
SCCF RECON,ioos:station:SCCF:13:1,2013-09-02T16:00:00Z,26.5255,-82.0032,2.66,22.23,1111122 
SCCF RECON,ioos:station:SCCF:13:1,2013-09-02T17:00:00Z,26.5255,-82.0032,2.637,23.92,1111122 
SCCF RECON,ioos:station:SCCF:13:1,2013-09-02T18:00:00Z,26.5255,-82.0032,2.569,24.77,1111122 
SCCF RECON,ioos:station:SCCF:13:1,2013-09-02T19:00:00Z,26.5255,-82.0032,2.44,19.57,1111122 
SCCF RECON,ioos:station:SCCF:13:1,2013-09-02T20:00:00Z,26.5255,-82.0032,2.355,6.6,1111122 
SCCF RECON,ioos:station:SCCF:13:1,2013-09-02T21:00:00Z,26.5255,-82.0032,2.26,4.52,1111122 
SCCF RECON,ioos:station:SCCF:13:1,2013-09-02T22:00:00Z,26.5255,-82.0032,2.14,3.18,1111122 
SCCF RECON,ioos:station:SCCF:13:1,2013-09-02T23:00:00Z,26.5255,-82.0032,2.079,2.05,1111122 
SCCF RECON,ioos:station:SCCF:13:1,2013-09-03T00:00:00Z,26.5255,-82.0032,2.1,1.42,1111122 
SCCF RECON,ioos:station:SCCF:13:1,2013-09-03T01:00:00Z,26.5255,-82.0032,2.209,1.1,1111122 
SCCF RECON,ioos:station:SCCF:13:1,2013-09-03T02:00:00Z,26.5255,-82.0032,2.33,0.94,1111122 
SCCF RECON,ioos:station:SCCF:13:1,2013-09-03T03:00:00Z,26.5255,-82.0032,2.42,1.5,1111122 
SCCF RECON,ioos:station:SCCF:13:1,2013-09-03T04:00:00Z,26.5255,-82.0032,2.47,8.23,1111122 
SCCF RECON,ioos:station:SCCF:13:1,2013-09-03T05:00:00Z,26.5255,-82.0032,2.53,16.04,1111122 
SCCF RECON,ioos:station:SCCF:13:1,2013-09-03T06:00:00Z,26.5255,-82.0032,2.53,20.11,1111122 
SCCF RECON,ioos:station:SCCF:13:1,2013-09-03T07:00:00Z,26.5255,-82.0032,2.48,21.44,1111122 
SCCF RECON,ioos:station:SCCF:13:1,2013-09-03T08:00:00Z,26.5255,-82.0032,2.407,20.74,1111122 
SCCF RECON,ioos:station:SCCF:13:1,2013-09-03T09:00:00Z,26.5255,-82.0032,2.32,12.36,1111122 
SCCF RECON,ioos:station:SCCF:13:1,2013-09-03T10:00:00Z,26.5255,-82.0032,2.25,3.4,1111122 
SCCF RECON,ioos:station:SCCF:13:1,2013-09-03T11:00:00Z,26.5255,-82.0032,2.22,2.15,1111122 
SCCF RECON,ioos:station:SCCF:13:1,2013-09-03T12:00:00Z,26.5255,-82.0032,2.298,1.35,1111122 
SCCF RECON,ioos:station:SCCF:13:1,2013-09-03T13:00:00Z,26.5255,-82.0032,2.43,5.76,1111122 
SCCF RECON,ioos:station:SCCF:13:1,2013-09-03T14:00:00Z,26.5255,-82.0032,2.53,16.14,1111122 
SCCF RECON,ioos:station:SCCF:13:1,2013-09-03T15:00:00Z,26.5255,-82.0032,2.61,17.35,1111122 
SCCF RECON,ioos:station:SCCF:13:1,2013-09-03T16:00:00Z,26.5255,-82.0032,2.67,19.38,1111122 
SCCF RECON,ioos:station:SCCF:13:1,2013-09-03T17:00:00Z,26.5255,-82.0032,2.68,22.38,1111122 
SCCF RECON,ioos:station:SCCF:13:1,2013-09-03T18:00:00Z,26.5255,-82.0032,2.62,23.79,1111122 
SCCF RECON,ioos:station:SCCF:13:1,2013-09-03T19:00:00Z,26.5255,-82.0032,2.51,23.28,1111122 
SCCF RECON,ioos:station:SCCF:13:1,2013-09-03T20:00:00Z,26.5255,-82.0032,2.369,15.48,1111122 
SCCF RECON,ioos:station:SCCF:13:1,2013-09-03T21:00:00Z,26.5255,-82.0032,2.263,4.88,1111122 
SCCF RECON,ioos:station:SCCF:13:1,2013-09-03T22:00:00Z,26.5255,-82.0032,2.175,3.98,1111122 
SCCF RECON,ioos:station:SCCF:13:1,2013-09-03T23:00:00Z,26.5255,-82.0032,2.1,2.27,1111122 
SCCF RECON,ioos:station:SCCF:13:1,2013-09-04T00:00:00Z,26.5255,-82.0032,2.06,1.35,1111122 
SCCF RECON,ioos:station:SCCF:13:1,2013-09-04T01:00:00Z,26.5255,-82.0032,2.14,0.93,1111122 
SCCF RECON,ioos:station:SCCF:13:1,2013-09-04T02:00:00Z,26.5255,-82.0032,2.28,0.78,1111122 
SCCF RECON,ioos:station:SCCF:13:1,2013-09-04T03:00:00Z,26.5255,-82.0032,2.38,0.75,1111122 
SCCF RECON,ioos:station:SCCF:13:1,2013-09-04T04:00:00Z,26.5255,-82.0032,2.45,5.57,1111122 
SCCF RECON,ioos:station:SCCF:13:1,2013-09-04T05:00:00Z,26.5255,-82.0032,2.51,10.13,1111122 
SCCF RECON,ioos:station:SCCF:13:1,2013-09-04T06:00:00Z,26.5255,-82.0032,2.55,18.45,1111122 
SCCF RECON,ioos:station:SCCF:13:1,2013-09-04T07:00:00Z,26.5255,-82.0032,2.484,20.31,1111122 
SCCF RECON,ioos:station:SCCF:13:1,2013-09-04T08:00:00Z,26.5255,-82.0032,2.368,19.79,1111122 
SCCF RECON,ioos:station:SCCF:13:1,2013-09-04T09:00:00Z,26.5255,-82.0032,2.28,7.78,1111122 
SCCF RECON,ioos:station:SCCF:13:1,2013-09-04T10:00:00Z,26.5255,-82.0032,2.23,3.15,1111122 
SCCF RECON,ioos:station:SCCF:13:1,2013-09-04T11:00:00Z,26.5255,-82.0032,2.18,1.87,1111122 
SCCF RECON,ioos:station:SCCF:13:1,2013-09-04T12:00:00Z,26.5255,-82.0032,2.18,1.14,1111122 
SCCF RECON,ioos:station:SCCF:13:1,2013-09-04T13:00:00Z,26.5255,-82.0032,2.29,0.93,1111122 
SCCF RECON,ioos:station:SCCF:13:1,2013-09-04T14:00:00Z,26.5255,-82.0032,2.437,1.97,1111122 
SCCF RECON,ioos:station:SCCF:13:1,2013-09-04T15:00:00Z,26.5255,-82.0032,2.54,12.95,1111122 
SCCF RECON,ioos:station:SCCF:13:1,2013-09-04T16:00:00Z,26.5255,-82.0032,2.585,16.76,1111122 
SCCF RECON,ioos:station:SCCF:13:1,2013-09-04T17:00:00Z,26.5255,-82.0032,2.63,21.75,1111122 
SCCF RECON,ioos:station:SCCF:13:1,2013-09-04T18:00:00Z,26.5255,-82.0032,2.65,22.84,1111122 
SCCF RECON,ioos:station:SCCF:13:1,2013-09-04T19:00:00Z,26.5255,-82.0032,2.65,23.01,1111122 
SCCF RECON,ioos:station:SCCF:13:1,2013-09-04T20:00:00Z,26.5255,-82.0032,2.48,20.56,1111122 
SCCF RECON,ioos:station:SCCF:13:1,2013-09-04T21:00:00Z,26.5255,-82.0032,2.35,12.28,1111122 
SCCF RECON,ioos:station:SCCF:13:1,2013-09-04T22:00:00Z,26.5255,-82.0032,2.248,5.23,1111122 
SCCF RECON,ioos:station:SCCF:13:1,2013-09-04T23:00:00Z,26.5255,-82.0032,2.16,3.96,1111122 
SCCF RECON,ioos:station:SCCF:13:1,2013-09-05T00:00:00Z,26.5255,-82.0032,2.1,2.41,1111122 
SCCF RECON,ioos:station:SCCF:13:1,2013-09-05T01:00:00Z,26.5255,-82.0032,2.105,1.53,1111122 
SCCF RECON,ioos:station:SCCF:13:1,2013-09-05T02:00:00Z,26.5255,-82.0032,2.211,1.24,1111122 
SCCF RECON,ioos:station:SCCF:13:1,2013-09-05T03:00:00Z,26.5255,-82.0032,2.36,1.05,1111122 
SCCF RECON,ioos:station:SCCF:13:1,2013-09-05T04:00:00Z,26.5255,-82.0032,2.44,2.44,1111122 
SCCF RECON,ioos:station:SCCF:13:1,2013-09-05T05:00:00Z,26.5255,-82.0032,2.48,8.28,1111122 
SCCF RECON,ioos:station:SCCF:13:1,2013-09-05T06:00:00Z,26.5255,-82.0032,2.49,15.47,1111122 
SCCF RECON,ioos:station:SCCF:13:1,2013-09-05T07:00:00Z,26.5255,-82.0032,2.46,19.73,1111122 
SCCF RECON,ioos:station:SCCF:13:1,2013-09-05T08:00:00Z,26.5255,-82.0032,2.388,19.5,1111122 
SCCF RECON,ioos:station:SCCF:13:1,2013-09-05T09:00:00Z,26.5255,-82.0032,2.28,11.43,1111122 
SCCF RECON,ioos:station:SCCF:13:1,2013-09-05T10:00:00Z,26.5255,-82.0032,2.2,2.67,1111122 
SCCF RECON,ioos:station:SCCF:13:1,2013-09-05T11:00:00Z,26.5255,-82.0032,2.13,1.26,1111122 
SCCF RECON,ioos:station:SCCF:13:1,2013-09-05T12:00:00Z,26.5255,-82.0032,2.08,0.79,1111122 
SCCF RECON,ioos:station:SCCF:13:1,2013-09-05T13:00:00Z,26.5255,-82.0032,2.11,0.72,1111122 
SCCF RECON,ioos:station:SCCF:13:1,2013-09-05T14:00:00Z,26.5255,-82.0032,2.286,0.73,1111122 
SCCF RECON,ioos:station:SCCF:13:1,2013-09-05T15:00:00Z,26.5255,-82.0032,2.437,1.58,1111122 
SCCF RECON,ioos:station:SCCF:13:1,2013-09-05T16:00:00Z,26.5255,-82.0032,2.52,10.42,1111122 
SCCF RECON,ioos:station:SCCF:13:1,2013-09-05T17:00:00Z,26.5255,-82.0032,2.59,17.83,1111122 
SCCF RECON,ioos:station:SCCF:13:1,2013-09-05T18:00:00Z,26.5255,-82.0032,2.63,20.64,1111122 
SCCF RECON,ioos:station:SCCF:13:1,2013-09-05T19:00:00Z,26.5255,-82.0032,2.62,20.68,1111122 
SCCF RECON,ioos:station:SCCF:13:1,2013-09-05T20:00:00Z,26.5255,-82.0032,2.54,21.8,1111122 
SCCF RECON,ioos:station:SCCF:13:1,2013-09-05T21:00:00Z,26.5255,-82.0032,2.412,21.23,1111122 
SCCF RECON,ioos:station:SCCF:13:1,2013-09-05T22:00:00Z,26.5255,-82.0032,2.308,14.01,1111122 
SCCF RECON,ioos:station:SCCF:13:1,2013-09-05T23:00:00Z,26.5255,-82.0032,2.208,6.61,1111122 
SCCF RECON,ioos:station:SCCF:13:1,2013-09-06T00:00:00Z,26.5255,-82.0032,2.15,5.59,1111122 
SCCF RECON,ioos:station:SCCF:13:1,2013-09-06T01:00:00Z,26.5255,-82.0032,2.12,4.06,1111122 
SCCF RECON,ioos:station:SCCF:13:1,2013-09-06T02:00:00Z,26.5255,-82.0032,2.208,2.81,1111122 
SCCF RECON,ioos:station:SCCF:13:1,2013-09-06T03:00:00Z,26.5255,-82.0032,2.349,2.02,1111122 
SCCF RECON,ioos:station:SCCF:13:1,2013-09-06T04:00:00Z,26.5255,-82.0032,2.45,6.01,1111122 
SCCF RECON,ioos:station:SCCF:13:1,2013-09-06T05:00:00Z,26.5255,-82.0032,2.52,9.68,1111122 
SCCF RECON,ioos:station:SCCF:13:1,2013-09-06T06:00:00Z,26.5255,-82.0032,2.57,16.61,1111122 
SCCF RECON,ioos:station:SCCF:13:1,2013-09-06T07:00:00Z,26.5255,-82.0032,2.58,21.9,1111122 
SCCF RECON,ioos:station:SCCF:13:1,2013-09-06T08:00:00Z,26.5255,-82.0032,2.52,22.66,1111122 
SCCF RECON,ioos:station:SCCF:13:1,2013-09-06T09:00:00Z,26.5255,-82.0032,2.39,22.33,1111122 
SCCF RECON,ioos:station:SCCF:13:1,2013-09-06T10:00:00Z,26.5255,-82.0032,2.26,9.82,1111122 
SCCF RECON,ioos:station:SCCF:13:1,2013-09-06T11:00:00Z,26.5255,-82.0032,2.18,5.32,1111122 
SCCF RECON,ioos:station:SCCF:13:1,2013-09-06T12:00:00Z,26.5255,-82.0032,2.12,4.43,1111122 
SCCF RECON,ioos:station:SCCF:13:1,2013-09-06T13:00:00Z,26.5255,-82.0032,2.1,2.69,1111122 
SCCF RECON,ioos:station:SCCF:13:1,2013-09-06T14:00:00Z,26.5255,-82.0032,2.16,2.05,1111122 
SCCF RECON,ioos:station:SCCF:13:1,2013-09-06T15:00:00Z,26.5255,-82.0032,2.311,1.7,1111122 
SCCF RECON,ioos:station:SCCF:13:1,2013-09-06T16:00:00Z,26.5255,-82.0032,2.44,3.84,1111122 
SCCF RECON,ioos:station:SCCF:13:1,2013-09-06T17:00:00Z,26.5255,-82.0032,2.51,10.18,1111122 
SCCF RECON,ioos:station:SCCF:13:1,2013-09-06T18:00:00Z,26.5255,-82.0032,2.56,17.41,1111122 
SCCF RECON,ioos:station:SCCF:13:1,2013-09-06T19:00:00Z,26.5255,-82.0032,2.577,19.39,1111122 
SCCF RECON,ioos:station:SCCF:13:1,2013-09-06T20:00:00Z,26.5255,-82.0032,2.54,20.76,1111122 
SCCF RECON,ioos:station:SCCF:13:1,2013-09-06T21:00:00Z,26.5255,-82.0032,2.44,21.73,1111122 
SCCF RECON,ioos:station:SCCF:13:1,2013-09-06T22:00:00Z,26.5255,-82.0032,2.3,15.46,1111122 
SCCF RECON,ioos:station:SCCF:13:1,2013-09-06T23:00:00Z,26.5255,-82.0032,2.21,8.16,1111122 
SCCF RECON,ioos:station:SCCF:13:1,2013-09-07T00:00:00Z,26.5255,-82.0032,2.19,5.42,1111122 
SCCF RECON,ioos:station:SCCF:13:1,2013-09-07T01:00:00Z,26.5255,-82.0032,2.16,3.91,1111122 
SCCF RECON,ioos:station:SCCF:13:1,2013-09-07T02:00:00Z,26.5255,-82.0032,2.11,2.28,1111122 
SCCF RECON,ioos:station:SCCF:13:1,2013-09-07T03:00:00Z,26.5255,-82.0032,2.2,1.51,1111122 
SCCF RECON,ioos:station:SCCF:13:1,2013-09-07T04:00:00Z,26.5255,-82.0032,2.28,1.06,1111122 
SCCF RECON,ioos:station:SCCF:13:1,2013-09-07T05:00:00Z,26.5255,-82.0032,2.4,1.88,1111122 
SCCF RECON,ioos:station:SCCF:13:1,2013-09-07T06:00:00Z,26.5255,-82.0032,2.45,6.64,1111122 
SCCF RECON,ioos:station:SCCF:13:1,2013-09-07T07:00:00Z,26.5255,-82.0032,2.51,12.55,1111122 
SCCF RECON,ioos:station:SCCF:13:1,2013-09-07T08:00:00Z,26.5255,-82.0032,2.51,17.15,1111122 
SCCF RECON,ioos:station:SCCF:13:1,2013-09-07T09:00:00Z,26.5255,-82.0032,2.42,20.01,1111122 
SCCF RECON,ioos:station:SCCF:13:1,2013-09-07T10:00:00Z,26.5255,-82.0032,2.26,10.71,1111122 
SCCF RECON,ioos:station:SCCF:13:1,2013-09-07T11:00:00Z,26.5255,-82.0032,2.22,4.12,1111122 
SCCF RECON,ioos:station:SCCF:13:1,2013-09-07T12:00:00Z,26.5255,-82.0032,2.13,1.98,1111122 
SCCF RECON,ioos:station:SCCF:13:1,2013-09-07T13:00:00Z,26.5255,-82.0032,2.041,1.05,1111122 
SCCF RECON,ioos:station:SCCF:13:1,2013-09-07T14:00:00Z,26.5255,-82.0032,2.034,0.67,1111122 
SCCF RECON,ioos:station:SCCF:13:1,2013-09-07T15:00:00Z,26.5255,-82.0032,2.22,0.56,1111122 
SCCF RECON,ioos:station:SCCF:13:1,2013-09-07T16:00:00Z,26.5255,-82.0032,2.37,1.05,1111122 
SCCF RECON,ioos:station:SCCF:13:1,2013-09-07T17:00:00Z,26.5255,-82.0032,2.42,4.9,1111122 
SCCF RECON,ioos:station:SCCF:13:1,2013-09-07T18:00:00Z,26.5255,-82.0032,2.47,11.54,1111122 
SCCF RECON,ioos:station:SCCF:13:1,2013-09-07T19:00:00Z,26.5255,-82.0032,2.555,17.59,1111122 
SCCF RECON,ioos:station:SCCF:13:1,2013-09-07T20:00:00Z,26.5255,-82.0032,2.54,18.91,1111122 
SCCF RECON,ioos:station:SCCF:13:1,2013-09-07T21:00:00Z,26.5255,-82.0032,2.49,20.33,1111122 
SCCF RECON,ioos:station:SCCF:13:1,2013-09-07T22:00:00Z,26.5255,-82.0032,2.379,19.49,1111122 
SCCF RECON,ioos:station:SCCF:13:1,2013-09-07T23:00:00Z,26.5255,-82.0032,2.284,8.5,1111122 
SCCF RECON,ioos:station:SCCF:13:1,2013-09-08T00:00:00Z,26.5255,-82.0032,2.209,5.12,1111122 
SCCF RECON,ioos:station:SCCF:13:1,2013-09-08T01:00:00Z,26.5255,-82.0032,2.14,3.07,1111122 
SCCF RECON,ioos:station:SCCF:13:1,2013-09-08T02:00:00Z,26.5255,-82.0032,2.119,1.94,1111122 
SCCF RECON,ioos:station:SCCF:13:1,2013-09-08T03:00:00Z,26.5255,-82.0032,2.19,1.22,1111122 
SCCF RECON,ioos:station:SCCF:13:1,2013-09-08T04:00:00Z,26.5255,-82.0032,2.327,0.97,1111122 
SCCF RECON,ioos:station:SCCF:13:1,2013-09-08T05:00:00Z,26.5255,-82.0032,2.44,3.29,1111122 
SCCF RECON,ioos:station:SCCF:13:1,2013-09-08T06:00:00Z,26.5255,-82.0032,2.499,8.75,1111122 
SCCF RECON,ioos:station:SCCF:13:1,2013-09-08T07:00:00Z,26.5255,-82.0032,2.54,17.34,1111122 
SCCF RECON,ioos:station:SCCF:13:1,2013-09-08T08:00:00Z,26.5255,-82.0032,2.57,21.28,1111122 
SCCF RECON,ioos:station:SCCF:13:1,2013-09-08T09:00:00Z,26.5255,-82.0032,2.53,21.6,1111122 
SCCF RECON,ioos:station:SCCF:13:1,2013-09-08T10:00:00Z,26.5255,-82.0032,2.375,21.71,1111122 
SCCF RECON,ioos:station:SCCF:13:1,2013-09-08T11:00:00Z,26.5255,-82.0032,2.25,8.48,1111122 
SCCF RECON,ioos:station:SCCF:13:1,2013-09-08T12:00:00Z,26.5255,-82.0032,2.17,4.28,1111122 
SCCF RECON,ioos:station:SCCF:13:1,2013-09-08T13:00:00Z,26.5255,-82.0032,2.09,3.05,1111122 
SCCF RECON,ioos:station:SCCF:13:1,2013-09-08T14:00:00Z,26.5255,-82.0032,2.05,1.65,1111122 
SCCF RECON,ioos:station:SCCF:13:1,2013-09-08T15:00:00Z,26.5255,-82.0032,2.089,1.19,1111122 
SCCF RECON,ioos:station:SCCF:13:1,2013-09-08T16:00:00Z,26.5255,-82.0032,2.22,0.84,1111122 
SCCF RECON,ioos:station:SCCF:13:1,2013-09-08T17:00:00Z,26.5255,-82.0032,2.35,0.72,1111122 
SCCF RECON,ioos:station:SCCF:13:1,2013-09-08T18:00:00Z,26.5255,-82.0032,2.42,4.3,1111122 
SCCF RECON,ioos:station:SCCF:13:1,2013-09-08T19:00:00Z,26.5255,-82.0032,2.47,9.99,1111122 
SCCF RECON,ioos:station:SCCF:13:1,2013-09-08T20:00:00Z,26.5255,-82.0032,2.49,18.33,1111122 
SCCF RECON,ioos:station:SCCF:13:1,2013-09-08T21:00:00Z,26.5255,-82.0032,2.46,18.37,1111122 
SCCF RECON,ioos:station:SCCF:13:1,2013-09-08T22:00:00Z,26.5255,-82.0032,2.432,20.55,1111122 
SCCF RECON,ioos:station:SCCF:13:1,2013-09-08T23:00:00Z,26.5255,-82.0032,2.36,19.73,1111122 
SCCF RECON,ioos:station:SCCF:13:1,2013-09-09T00:00:00Z,26.5255,-82.0032,2.259,6.72,1111122 
SCCF RECON,ioos:station:SCCF:13:1,2013-09-09T01:00:00Z,26.5255,-82.0032,2.199,3.06,1111122 
SCCF RECON,ioos:station:SCCF:13:1,2013-09-09T02:00:00Z,26.5255,-82.0032,2.18,1.91,1111122 
SCCF RECON,ioos:station:SCCF:13:1,2013-09-09T03:00:00Z,26.5255,-82.0032,2.19,1.01,1111122 
SCCF RECON,ioos:station:SCCF:13:1,2013-09-09T04:00:00Z,26.5255,-82.0032,2.32,0.8,1111122 
SCCF RECON,ioos:station:SCCF:13:1,2013-09-09T05:00:00Z,26.5255,-82.0032,2.44,5.16,1111122 
SCCF RECON,ioos:station:SCCF:13:1,2013-09-09T06:00:00Z,26.5255,-82.0032,2.5,11.51,1111122 
SCCF RECON,ioos:station:SCCF:13:1,2013-09-09T07:00:00Z,26.5255,-82.0032,2.55,15.98,1111122 
SCCF RECON,ioos:station:SCCF:13:1,2013-09-09T08:00:00Z,26.5255,-82.0032,2.61,21.01,1111122 
SCCF RECON,ioos:station:SCCF:13:1,2013-09-09T09:00:00Z,26.5255,-82.0032,2.6,21.91,1111122 
SCCF RECON,ioos:station:SCCF:13:1,2013-09-09T10:00:00Z,26.5255,-82.0032,2.5,22.91,1111122 
SCCF RECON,ioos:station:SCCF:13:1,2013-09-09T11:00:00Z,26.5255,-82.0032,2.37,19.26,1111122 
SCCF RECON,ioos:station:SCCF:13:1,2013-09-09T12:00:00Z,26.5255,-82.0032,2.26,4.69,1111122 
SCCF RECON,ioos:station:SCCF:13:1,2013-09-09T13:00:00Z,26.5255,-82.0032,2.179,3.46,1111122 
SCCF RECON,ioos:station:SCCF:13:1,2013-09-09T14:00:00Z,26.5255,-82.0032,2.096,2.15,1111122 
SCCF RECON,ioos:station:SCCF:13:1,2013-09-09T15:00:00Z,26.5255,-82.0032,2.057,1.22,1111122 
SCCF RECON,ioos:station:SCCF:13:1,2013-09-09T16:00:00Z,26.5255,-82.0032,2.1,0.82,1111122 
SCCF RECON,ioos:station:SCCF:13:1,2013-09-09T17:00:00Z,26.5255,-82.0032,2.23,0.73,1111122 
SCCF RECON,ioos:station:SCCF:13:1,2013-09-09T18:00:00Z,26.5255,-82.0032,2.34,0.64,1111122 
SCCF RECON,ioos:station:SCCF:13:1,2013-09-09T19:00:00Z,26.5255,-82.0032,2.4,2.84,1111122 
SCCF RECON,ioos:station:SCCF:13:1,2013-09-09T20:00:00Z,26.5255,-82.0032,2.428,9.17,1111122 
SCCF RECON,ioos:station:SCCF:13:1,2013-09-09T21:00:00Z,26.5255,-82.0032,2.45,17.09,1111122 
SCCF RECON,ioos:station:SCCF:13:1,2013-09-09T22:00:00Z,26.5255,-82.0032,2.463,19.07,1111122 
SCCF RECON,ioos:station:SCCF:13:1,2013-09-09T23:00:00Z,26.5255,-82.0032,2.42,19.83,1111122 
SCCF RECON,ioos:station:SCCF:13:1,2013-09-10T00:00:00Z,26.5255,-82.0032,2.33,16.98,1111122 
SCCF RECON,ioos:station:SCCF:13:1,2013-09-10T01:00:00Z,26.5255,-82.0032,2.249,6.22,1111122 
SCCF RECON,ioos:station:SCCF:13:1,2013-09-10T02:00:00Z,26.5255,-82.0032,2.2,2.23,1111122 
SCCF RECON,ioos:station:SCCF:13:1,2013-09-10T03:00:00Z,26.5255,-82.0032,2.191,1.2,1111122 
SCCF RECON,ioos:station:SCCF:13:1,2013-09-10T04:00:00Z,26.5255,-82.0032,2.22,0.98,1111122 
SCCF RECON,ioos:station:SCCF:13:1,2013-09-10T05:00:00Z,26.5255,-82.0032,2.342,1.11,1111122 
SCCF RECON,ioos:station:SCCF:13:1,2013-09-10T06:00:00Z,26.5255,-82.0032,2.47,11.87,1111122 
SCCF RECON,ioos:station:SCCF:13:1,2013-09-10T07:00:00Z,26.5255,-82.0032,2.531,15.79,1111122 
SCCF RECON,ioos:station:SCCF:13:1,2013-09-10T08:00:00Z,26.5255,-82.0032,2.58,19.97,1111122 
SCCF RECON,ioos:station:SCCF:13:1,2013-09-10T09:00:00Z,26.5255,-82.0032,2.59,22.84,1111122 
SCCF RECON,ioos:station:SCCF:13:1,2013-09-10T10:00:00Z,26.5255,-82.0032,2.55,23.97,1111122 
SCCF RECON,ioos:station:SCCF:13:1,2013-09-10T11:00:00Z,26.5255,-82.0032,2.44,23.81,1111122 
SCCF RECON,ioos:station:SCCF:13:1,2013-09-10T12:00:00Z,26.5255,-82.0032,2.31,15.82,1111122 
SCCF RECON,ioos:station:SCCF:13:1,2013-09-10T13:00:00Z,26.5255,-82.0032,2.24,4.4,1111122 
SCCF RECON,ioos:station:SCCF:13:1,2013-09-10T14:00:00Z,26.5255,-82.0032,2.15,3.24,1111122 
SCCF RECON,ioos:station:SCCF:13:1,2013-09-10T15:00:00Z,26.5255,-82.0032,2.072,2.17,1111122 
SCCF RECON,ioos:station:SCCF:13:1,2013-09-10T16:00:00Z,26.5255,-82.0032,2.03,1.44,1111122 
SCCF RECON,ioos:station:SCCF:13:1,2013-09-10T17:00:00Z,26.5255,-82.0032,2.09,1.03,1111122 
SCCF RECON,ioos:station:SCCF:13:1,2013-09-10T18:00:00Z,26.5255,-82.0032,2.217,0.81,1111122 
SCCF RECON,ioos:station:SCCF:13:1,2013-09-10T19:00:00Z,26.5255,-82.0032,2.3,0.68,1111122 
SCCF RECON,ioos:station:SCCF:13:1,2013-09-10T20:00:00Z,26.5255,-82.0032,2.36,4.46,1111122 
SCCF RECON,ioos:station:SCCF:13:1,2013-09-10T21:00:00Z,26.5255,-82.0032,2.4,9.23,1111122 
SCCF RECON,ioos:station:SCCF:13:1,2013-09-10T22:00:00Z,26.5255,-82.0032,2.446,15.73,1111122 
SCCF RECON,ioos:station:SCCF:13:1,2013-09-10T23:00:00Z,26.5255,-82.0032,2.42,18.78,1111122 
SCCF RECON,ioos:station:SCCF:13:1,2013-09-11T00:00:00Z,26.5255,-82.0032,2.389,19.83,1111122 
SCCF RECON,ioos:station:SCCF:13:1,2013-09-11T01:00:00Z,26.5255,-82.0032,2.31,16.74,1111122 
SCCF RECON,ioos:station:SCCF:13:1,2013-09-11T02:00:00Z,26.5255,-82.0032,2.27,14.79,1111122 
SCCF RECON,ioos:station:SCCF:13:1,2013-09-11T03:00:00Z,26.5255,-82.0032,2.25,4.21,1111122 
SCCF RECON,ioos:station:SCCF:13:1,2013-09-11T04:00:00Z,26.5255,-82.0032,2.22,1.97,1111122 
SCCF RECON,ioos:station:SCCF:13:1,2013-09-11T05:00:00Z,26.5255,-82.0032,2.27,2.78,1111122 
SCCF RECON,ioos:station:SCCF:13:1,2013-09-11T06:00:00Z,26.5255,-82.0032,2.41,12.91,1111122 
SCCF RECON,ioos:station:SCCF:13:1,2013-09-11T07:00:00Z,26.5255,-82.0032,2.5,18.59,1111122 
SCCF RECON,ioos:station:SCCF:13:1,2013-09-11T08:00:00Z,26.5255,-82.0032,2.52,20.4,1111122 
SCCF RECON,ioos:station:SCCF:13:1,2013-09-11T09:00:00Z,26.5255,-82.0032,2.561,23.17,1111122 
SCCF RECON,ioos:station:SCCF:13:1,2013-09-11T10:00:00Z,26.5255,-82.0032,2.6,24.71,1111122 
SCCF RECON,ioos:station:SCCF:13:1,2013-09-11T11:00:00Z,26.5255,-82.0032,2.591,25.06,1111122 
SCCF RECON,ioos:station:SCCF:13:1,2013-09-11T12:00:00Z,26.5255,-82.0032,2.48,25.56,1111122 
SCCF RECON,ioos:station:SCCF:13:1,2013-09-11T13:00:00Z,26.5255,-82.0032,2.34,20.43,1111122 
SCCF RECON,ioos:station:SCCF:13:1,2013-09-11T14:00:00Z,26.5255,-82.0032,2.24,6.06,1111122 
SCCF RECON,ioos:station:SCCF:13:1,2013-09-11T15:00:00Z,26.5255,-82.0032,2.159,5.35,1111122 
SCCF RECON,ioos:station:SCCF:13:1,2013-09-11T16:00:00Z,26.5255,-82.0032,2.078,3.87,1111122 
SCCF RECON,ioos:station:SCCF:13:1,2013-09-11T17:00:00Z,26.5255,-82.0032,2.039,3.36,1111122 
SCCF RECON,ioos:station:SCCF:13:1,2013-09-11T18:00:00Z,26.5255,-82.0032,2.06,2.41,1111122 
SCCF RECON,ioos:station:SCCF:13:1,2013-09-11T19:00:00Z,26.5255,-82.0032,2.22,2.05,1111122 
SCCF RECON,ioos:station:SCCF:13:1,2013-09-11T20:00:00Z,26.5255,-82.0032,2.21,1.81,1111122 